Simultaneous Nadir Overpasses (SNOs) Predictions

Prediction of SNOs between FY3D and NOAA-19 Satellite Orbit:

Table of predicted SNOs for the next 14.0 days since TLE Epoch: 8/1/2020
Index Date (FY3D) Time (FY3D) Lat,Lon (FY3D) SZA (FY3D ) Date (NOAA-19) Time (NOAA-19) Lat,Lon (NOAA-19) SZA (NOAA-19 ) Distance(km) Time Diff (sec)
1 08/08/2020 06:05:08 79.25, 57.71 64.99 08/08/2020 06:03:53 79.22, 57.48 65.02 6.06 75
2 08/08/2020 06:55:52 -79.23,-134.84 115.03 08/08/2020 06:54:54 -79.26,-134.93 114.98 2.98 58
3 08/08/2020 07:46:37 79.25, 32.35 65.01 08/08/2020 07:45:52 79.26, 32.41 65.04 1.94 45
4 08/08/2020 08:37:22 -79.27,-160.46 114.96 08/08/2020 08:36:55 -79.24,-160.56 114.96 3.45 27
5 08/08/2020 09:28:07 79.28, 6.73 65.08 08/08/2020 09:27:53 79.25, 6.78 65.06 3.74 14
6 08/08/2020 10:18:51 -79.26, 174.18 114.94 08/08/2020 10:18:55 -79.26, 174.09 114.94 2.09 4
7 08/08/2020 11:09:36 79.28, -18.63 65.10 08/08/2020 11:09:53 79.27, -18.57 65.08 1.94 17
8 08/08/2020 12:00:20 -79.26, 148.82 114.92 08/08/2020 12:00:55 -79.27, 148.73 114.92 2.22 35
9 08/08/2020 12:51:05 79.28, -43.98 65.12 08/08/2020 12:51:53 79.28, -43.92 65.09 1.49 48
10 08/08/2020 13:41:50 -79.30, 123.21 114.85 08/08/2020 13:42:55 -79.29, 123.38 114.90 3.65 65
